Temp
9 9 9 9 9 9 9 9 9 9 9 10 10 10 10 10 10 10 10 11 13 15 17 17 16 17 16 16 16 16 17 17 17 15 16 23 26 26 26 26 26 23 23 24 24 23 22 22 22 23 23 24 24 24 25 24 24 24 23 23 23 23 23 23 24 24 24 24 23 23 24 24 24 24 24 24 25 24 24 24 24 24 24 23 23 22 22 22
9 9 9 9 9 9 9 9 9 9 9 9 9 9 9 10 10 10 11 12 13 15 16 17 16 16 16 16 15 16 16 16 15 14 20 27 26 26 26 26 25 23 23 24 24 24 23 23 23 23 24 24 24 25 25 24 24 24 23 23 23 24 24 24 24 24 24 24 23 23 24 25 24 24 25 24 24 24 24 23 23 23 23 23 23 23 22 22
9 9 9 9 9 10 10 10 10 10 10 10 10 10 10 10 10 10 11 13 13 15 16 16 16 16 16 16 15 16 15 14 17 21 26 28 26 26 26 25 25 23 23 24 25 25 25 24 23 23 24 24 24 24 24 24 24 24 23 24 25 24 23 24 24 24 24 24 23 23 24 25 24 24 25 24 24 24 23 23 23 22 22 22 23 23 22 22
9 9 9 10 11 11 11 11 11 11 11 12 11 11 12 12 12 11 11 12 14 15 16 16 15 15 16 15 16 16 13 16 23 26 27 27 27 27 26 25 25 23 24 24 25 25 25 24 23 24 24 24 25 24 24 24 24 24 24 25 25 24 23 24 24 24 24 24 24 24 24 24 24 25 25 24 24 23 23 23 23 22 22 22 22 23 22 22
9 9 9 11 12 12 12 12 12 13 13 13 13 13 13 14 14 13 12 12 13 15 16 16 14 14 15 15 16 15 15 22 27 26 26 27 27 27 26 25 24 24 24 24 24 25 25 24 24 25 24 24 24 24 24 24 24 24 24 25 26 25 25 25 24 24 24 23 24 24 24 24 24 25 25 25 24 24 24 24 24 23 23 23 23 23 23 22
9 9 10 11 13 13 14 14 14 14 14 14 15 14 14 15 16 15 14 13 13 14 15 15 14 13 14 15 16 15 18 25 26 25 27 27 27 27 26 25 25 24 24 24 25 24 25 25 24 24 25 24 24 24 25 25 25 25 25 26 26 26 26 25 24 24 23 23 23 24 24 24 24 24 24 25 25 24 25 25 24 24 23 23 23 23 22 22
9 9 11 12 13 14 14 15 15 15 14 14 14 15 15 15 16 16 16 14 13 13 13 14 14 14 14 14 15 16 19 24 26 26 27 27 27 26 25 25 25 24 24 24 24 24 25 25 25 25 25 25 25 25 25 25 25 25 26 26 27 27 25 24 24 23 24 24 24 24 24 24 24 24 24 25 24 24 25 25 24 24 24 24 23 23 23 22
9 9 11 14 15 15 14 15 15 15 15 15 15 15 16 16 17 17 17 15 14 13 12 13 14 14 14 14 16 18 20 24 27 27 27 27 27 25 25 25 24 25 24 24 24 24 25 25 25 25 25 26 26 26 25 25 25 24 26 27 27 26 24 23 23 23 24 23 23 24 24 23 24 24 24 24 24 24 25 25 24 24 24 24 23 23 23 23
9 10 12 15 15 15 15 14 15 15 16 16 16 16 16 17 17 17 17 16 15 14 12 13 14 14 14 14 17 22 24 26 26 27 27 27 26 25 25 25 24 25 24 24 25 24 25 25 25 26 26 26 26 26 26 25 26 25 26 27 27 25 23 22 23 23 23 23 24 24 23 23 23 24 25 24 24 24 25 24 24 24 23 23 23 23 23 23
9 11 13 15 16 16 15 15 15 15 15 16 17 17 17 17 17 18 17 17 15 14 13 13 13 14 14 14 18 23 25 25 25 26 27 27 27 26 25 25 25 25 24 23 24 24 25 25 26 26 26 26 26 27 26 26 27 26 25 26 25 24 22 22 23 23 23 23 24 24 23 23 23 24 25 24 24 25 24 24 24 24 23 24 24 23 23 23
11 12 14 15 16 15 15 15 15 15 15 16 17 17 17 17 18 18 18 17 16 15 14 13 14 14 14 15 19 24 25 25 25 26 26 27 27 26 26 26 25 25 24 23 23 25 25 25 26 26 26 26 26 27 26 27 27 26 25 25 24 22 22 22 22 23 23 23 24 24 23 24 23 24 25 24 25 25 24 24 24 24 24 24 24 23 23 23
13 14 14 15 15 15 15 15 15 15 16 16 17 17 18 18 18 18 18 17 16 15 14 13 14 14 14 16 19 23 25 25 24 25 26 26 26 26 26 26 26 26 25 23 23 25 25 26 26 26 26 26 26 27 27 28 27 26 26 25 23 23 22 22 22 23 24 23 24 25 24 24 24 24 24 24 24 25 24 24 24 24 24 24 24 23 23 23
14 15 15 15 15 15 15 16 16 16 16 17 17 17 18 18 18 18 18 17 16 15 14 14 14 14 15 19 22 24 25 24 24 24 25 26 26 25 25 25 25 25 26 25 24 25 25 25 26 26 26 26 26 27 28 28 27 27 26 25 24 23 22 22 23 23 24 23 24 25 23 23 24 24 24 24 24 24 24 24 24 24 24 24 24 24 23 24
14 15 15 15 15 15 16 16 16 17 17 17 17 18 18 18 18 18 18 17 17 17 16 15 14 14 16 21 24 24 25 24 24 24 24 25 24 24 24 24 24 24 25 25 25 26 26 26 26 26 26 26 26 27 28 27 27 27 26 25 24 23 22 23 24 24 24 23 23 24 23 23 24 24 24 24 24 24 24 24 24 24 24 24 24 24 24 24
14 15 16 16 16 16 17 17 17 17 17 17 17 17 18 18 18 18 17 18 17 17 16 15 14 15 17 21 24 24 24 24 25 25 25 25 24 23 23 23 24 24 24 25 25 25 26 26 25 26 26 26 27 27 27 27 26 26 25 23 24 23 23 24 24 24 24 23 23 24 23 23 24 23 24 23 23 24 24 24 24 24 24 24 24 24 24 24
15 15 16 16 16 17 17 17 17 17 17 17 17 18 18 18 18 18 17 17 17 16 15 15 14 15 18 22 24 25 24 24 25 26 25 25 25 24 23 23 23 23 24 24 25 25 26 26 26 26 26 26 27 27 27 25 24 26 24 22 23 23 22 23 24 24 24 23 23 23 23 23 24 23 23 23 23 24 24 24 24 24 24 24 24 24 24 24
15 16 16 16 17 18 18 18 18 18 17 17 18 18 18 18 18 17 17 17 17 15 15 15 14 15 20 24 25 25 24 25 26 26 25 24 25 24 23 23 23 23 23 24 25 25 25 26 26 25 26 26 26 27 25 22 22 24 24 23 23 24 23 22 23 24 24 24 24 24 24 24 24 23 23 23 23 24 25 24 24 24 24 24 24 24 24 24
16 16 16 17 17 18 18 18 18 18 18 18 19 18 18 17 17 16 16 16 16 15 15 15 15 18 22 24 24 24 24 25 25 25 24 24 24 24 24 24 23 22 23 24 25 25 25 25 26 26 26 26 26 27 24 22 22 22 23 23 23 24 23 23 23 24 24 24 24 24 24 24 23 23 23 23 23 24 25 25 24 25 24 24 24 24 24 24
16 17 17 17 18 18 19 19 19 19 18 18 18 17 17 16 16 16 15 15 17 19 20 18 19 21 23 23 24 24 25 25 25 25 24 24 24 24 25 24 24 24 24 25 25 25 25 25 25 24 25 26 26 27 25 25 25 24 24 24 23 23 23 24 24 24 24 24 24 24 24 24 23 23 23 23 23 24 25 25 25 25 25 24 25 25 25 24
17 17 18 18 18 19 19 19 19 19 18 17 17 17 18 18 19 18 16 15 17 20 22 21 20 22 23 23 23 24 25 25 25 25 25 25 25 24 25 25 25 25 25 25 25 25 25 25 24 24 26 26 26 27 27 27 27 26 25 24 24 23 23 25 25 24 25 24 24 25 24 24 23 23 23 23 23 24 25 25 25 24 25 25 25 25 25 25
18 18 18 19 19 19 19 19 19 19 18 17 17 18 20 21 21 21 19 19 18 18 20 21 20 21 23 23 23 24 25 25 25 25 25 25 25 25 25 25 25 25 25 25 25 25 25 24 24 26 27 26 26 28 27 27 28 27 26 25 24 24 24 25 25 24 26 25 24 24 24 24 23 23 23 23 23 23 24 25 24 24 25 25 25 25 25 25
18 19 19 19 19 20 20 20 20 19 19 18 17 18 20 21 21 21 21 21 20 18 19 20 19 20 21 22 23 23 23 24 26 26 25 26 26 25 25 25 25 25 24 25 25 25 24 24 25 26 25 25 26 27 27 27 28 28 27 25 24 24 24 25 25 25 26 25 24 24 24 23 24 23 23 23 23 23 24 25 25 24 25 25 25 25 25 25
19 19 19 20 20 20 20 20 21 20 19 18 18 19 20 21 21 21 21 21 21 20 19 20 21 22 22 23 23 23 24 25 26 26 25 26 26 25 26 25 25 25 24 25 25 23 23 24 26 25 24 25 26 26 27 27 27 27 26 25 24 25 24 23 24 25 26 25 24 23 23 23 24 23 23 23 23 24 24 24 24 24 24 25 25 25 25 25
19 20 20 20 20 20 20 21 21 20 19 19 19 21 21 21 21 21 21 21 21 22 22 21 22 23 24 25 24 24 25 25 25 26 26 26 26 25 26 26 25 25 25 25 25 24 24 25 25 25 25 26 26 26 27 26 25 26 27 25 25 25 25 24 24 25 25 25 24 23 22 22 23 23 23 22 22 23 23 23 24 24 24 25 25 26 26 25
19 20 20 21 21 21 20 20 21 21 20 20 21 22 22 22 22 22 22 21 20 22 23 22 22 24 25 25 24 25 26 26 26 27 26 26 26 25 26 26 25 25 25 24 25 25 25 25 25 26 26 26 26 26 26 26 24 25 27 27 27 27 26 24 25 24 23 22 24 24 21 21 23 24 23 22 22 22 23 23 23 24 24 24 25 26 25 25
19 20 21 21 21 21 20 21 21 21 21 22 23 23 22 23 23 22 22 21 21 23 24 24 23 25 26 25 24 25 26 26 26 26 26 27 27 27 26 25 25 25 25 25 25 25 25 25 26 27 26 26 26 25 26 26 24 23 26 28 28 28 26 24 24 23 21 21 24 25 22 21 22 23 24 23 22 22 23 23 23 24 24 24 25 25 25 25
19 20 21 21 22 21 21 22 21 21 22 23 23 23 23 23 23 23 22 20 21 22 24 24 24 25 26 25 25 26 25 25 26 26 27 27 27 27 26 25 26 25 25 25 24 24 26 26 26 26 26 26 25 25 25 26 25 24 26 28 28 27 25 25 24 23 22 23 24 25 24 21 21 23 24 24 23 23 23 23 23 24 24 24 24 25 25 25
19 20 21 21 22 21 21 21 21 21 23 23 23 23 23 23 23 22 21 20 21 23 24 24 25 26 26 25 26 26 25 25 26 26 26 27 27 27 26 26 26 26 26 25 23 24 26 26 27 27 26 25 25 26 26 26 26 26 27 28 28 27 25 25 25 23 23 23 21 23 23 22 21 22 24 24 23 23 23 23 24 24 24 24 24 25 25 25
20 20 21 22 22 22 21 21 20 22 23 23 23 23 23 23 23 22 21 20 21 23 24 24 25 26 26 26 26 26 26 26 26 26 26 27 27 27 26 26 26 26 26 25 24 25 26 27 27 27 26 26 26 27 27 27 27 28 28 28 28 26 26 26 25 23 23 22 21 21 22 22 21 22 23 23 23 23 24 24 24 24 25 24 24 25 25 25
20 20 21 22 22 22 21 21 22 23 23 23 23 23 23 23 22 21 20 20 22 23 24 25 25 25 25 26 26 25 26 26 26 26 26 27 27 27 26 25 26 26 26 25 25 26 26 26 26 27 27 27 28 27 26 27 28 28 28 28 26 25 26 25 24 23 22 21 21 22 22 22 21 21 22 23 24 25 25 24 24 25 25 25 25 25 25 24
20 21 22 23 22 21 21 22 24 24 23 23 23 23 23 22 21 20 20 22 22 23 24 25 25 25 25 25 25 25 25 26 26 26 26 26 27 27 26 25 26 26 25 25 25 25 26 26 26 27 28 28 28 27 26 27 27 28 29 27 24 23 24 23 22 22 21 21 22 22 23 22 21 22 23 24 26 26 25 25 24 25 25 25 25 25 25 24
21 22 23 23 23 22 22 23 24 23 22 23 22 22 22 22 21 20 21 22 22 23 24 24 24 25 25 25 25 25 25 26 26 26 26 25 25 26 25 25 25 23 22 23 24 24 26 27 27 28 28 28 28 27 25 25 26 27 27 25 22 21 21 21 20 21 21 21 22 23 23 22 21 23 24 25 25 26 26 26 25 25 25 25 25 25 25 24
22 23 24 24 24 23 24 24 23 22 23 23 22 22 22 21 20 20 21 22 22 23 24 24 24 24 25 25 25 25 25 25 25 25 25 25 25 25 24 25 25 24 22 22 22 22 24 26 26 27 28 28 28 27 24 24 25 26 25 23 22 21 21 20 20 21 21 21 22 23 23 22 22 24 25 24 25 26 26 26 26 26 26 26 25 25 25 24
23 24 24 24 25 25 25 24 23 23 23 22 23 23 22 20 20 21 22 23 23 24 24 23 24 24 24 25 24 25 25 24 25 25 25 25 24 24 25 24 24 25 24 23 22 22 22 23 26 28 27 27 28 28 27 27 26 25 27 26 23 22 21 21 20 21 21 21 22 23 23 21 22 24 24 24 24 25 26 27 26 26 26 26 26 25 25 25
24 24 24 25 25 25 25 25 24 24 22 22 23 23 21 20 21 21 22 23 23 24 24 23 24 24 24 25 24 24 25 24 24 25 25 24 23 23 24 25 24 25 24 22 22 22 21 22 26 27 26 27 28 28 29 29 26 25 27 26 24 24 24 22 21 22 21 21 21 21 22 22 23 24 23 23 23 24 26 26 26 26 26 26 26 25 25 25
25 25 25 25 25 25 25 25 24 24 23 23 23 22 21 21 22 22 23 24 24 23 24 23 23 23 23 24 24 24 25 25 24 24 24 23 23 23 23 24 25 25 25 23 23 23 21 22 27 27 26 28 28 28 29 28 26 25 24 24 25 27 27 23 21 22 21 21 21 21 22 23 23 24 23 23 23 24 25 26 26 26 25 25 25 26 25 25
25 25 24 25 25 25 25 24 24 24 23 24 23 21 22 23 23 23 24 24 23 23 23 22 22 22 22 22 23 24 25 24 24 23 23 22 23 24 24 24 25 24 25 24 24 23 22 23 26 27 28 28 27 28 29 28 28 26 24 25 27 27 27 24 22 21 21 21 21 21 21 22 22 23 23 22 23 23 24 25 25 25 25 25 25 26 26 25
24 24 24 24 25 25 25 25 25 24 23 24 23 22 22 23 23 23 24 24 24 24 23 22 21 22 21 21 22 23 24 23 23 23 22 22 23 23 24 24 25 24 23 24 24 24 23 22 25 27 27 27 27 27 28 27 28 28 27 28 27 24 24 23 22 21 21 21 21 21 21 21 21 22 22 22 22 22 23 24 24 24 25 25 25 25 25 24
23 24 24 24 25 24 24 24 24 24 24 23 23 22 22 23 24 24 23 23 23 24 23 22 22 22 22 22 22 23 23 23 23 23 22 22 22 23 24 24 25 25 23 24 25 24 23 22 23 26 26 26 27 27 25 26 27 28 27 28 27 25 24 23 23 22 22 21 21 21 21 21 21 21 21 21 22 22 23 23 23 23 24 24 24 24 23 23
21 24 24 23 24 24 23 24 24 24 24 22 22 22 22 23 25 25 24 23 23 23 23 22 22 22 22 22 22 23 23 23 23 22 22 22 22 24 24 24 24 25 23 24 25 23 24 22 22 25 26 24 25 26 25 26 27 27 26 25 25 25 25 24 23 22 22 22 21 21 21 21 21 21 21 22 22 22 22 22 22 22 22 22 22 22 22 22
20 24 24 23 24 23 23 24 23 22 23 22 21 22 23 24 25 25 24 24 24 23 23 23 23 22 22 22 22 22 23 23 22 22 22 23 23 23 24 23 23 24 24 25 25 23 24 23 21 23 24 23 25 26 26 26 27 28 27 26 26 25 24 23 22 21 22 22 21 21 22 21 21 21 22 22 22 22 22 22 22 22 22 22 21 21 22 21
21 24 24 23 24 23 23 24 22 20 22 23 22 23 24 24 24 24 24 24 24 24 23 23 23 22 22 23 22 23 23 22 22 22 23 23 23 23 24 23 23 23 24 25 24 23 23 23 22 22 23 24 25 26 24 24 26 28 27 27 27 26 24 23 22 22 21 21 21 21 21 21 21 21 22 22 22 22 21 21 21 21 21 21 21 21 21 21
22 23 24 24 24 24 24 24 22 22 23 23 22 23 23 23 23 24 24 24 24 24 24 23 23 23 23 23 23 23 23 22 22 23 23 23 24 24 23 23 23 23 24 24 24 23 23 22 22 22 23 25 26 26 25 24 26 27 26 26 26 26 26 24 23 23 22 21 21 21 21 21 21 21 21 21 21 21 21 21 21 21 21 21 21 21 21 21
20 20 22 24 25 25 25 23 23 23 23 23 23 24 24 23 23 23 23 23 23 24 24 24 23 23 23 22 22 22 22 22 22 22 23 23 24 24 23 23 23 24 24 24 24 24 23 21 21 21 22 23 24 25 25 25 26 25 25 25 25 25 26 25 23 23 22 21 21 22 22 21 21 21 21 21 21 21 20 21 21 21 21 20 20 20 20 20
19 20 21 22 24 24 23 22 22 23 23 23 23 23 23 24 23 23 23 22 22 23 23 24 23 23 23 22 22 22 21 22 22 22 22 23 23 24 23 23 23 23 23 23 23 23 23 21 21 21 21 21 21 21 22 23 24 24 24 25 25 25 26 25 23 22 22 21 21 22 21 20 21 21 21 21 21 20 20 20 20 20 20 20 20 20 20 20
21 22 22 23 23 23 22 21 21 23 23 23 23 22 22 23 23 23 23 23 22 22 22 22 22 23 23 23 22 22 21 22 22 22 22 22 23 24 23 23 23 23 24 23 22 23 24 22 21 22 21 21 21 21 22 22 22 23 23 24 24 24 25 25 23 22 22 21 21 21 21 20 21 21 21 21 20 20 20 20 19 19 19 19 20 20 20 19
21 21 20 21 23 23 23 21 20 22 22 22 22 22 21 22 23 23 23 23 22 22 22 21 21 22 23 22 22 22 21 22 22 22 21 21 23 23 22 23 23 23 24 23 22 24 24 22 21 22 22 21 21 21 22 23 22 22 22 23 23 23 25 25 24 22 23 22 21 21 21 20 21 21 21 20 20 20 20 19 19 19 19 19 19 19 19 19
20 19 18 19 21 22 22 22 21 21 22 22 22 21 21 21 22 22 23 23 22 22 22 21 20 20 21 22 22 22 21 22 22 21 21 21 22 23 23 24 23 23 24 23 22 23 24 22 21 22 23 22 22 21 22 23 23 23 22 22 22 22 24 25 23 22 23 23 22 21 20 20 21 21 21 21 20 20 20 20 20 19 20 20 19 19 19 19
19 19 17 17 19 20 20 20 20 21 22 22 22 21 21 21 22 21 21 22 22 22 21 21 20 19 20 21 22 21 20 21 21 21 21 21 21 22 23 23 24 23 23 24 22 21 22 22 21 22 23 24 22 21 21 22 23 23 22 22 22 22 22 23 22 21 22 22 21 20 20 21 22 21 21 20 20 20 20 20 20 20 20 19 19 19 19 19
18 18 17 18 19 19 19 19 20 22 22 21 21 21 20 21 21 21 21 21 22 22 21 21 20 20 20 21 21 21 20 21 21 21 21 22 22 22 22 22 23 23 23 23 22 21 22 21 20 22 23 23 22 22 21 22 23 23 22 22 22 22 22 21 21 20 21 20 20 20 21 21 21 21 20 20 20 20 20 20 20 20 20 20 19 19 19 19
16 16 16 18 20 19 19 19 20 22 22 21 21 21 21 21 21 21 21 21 20 22 22 21 21 20 21 21 21 21 21 20 21 22 21 22 22 22 22 22 22 23 23 22 22 22 22 21 21 22 22 22 22 21 22 23 23 23 22 22 21 22 22 21 21 21 21 20 20 20 21 20 20 20 20 20 20 20 19 19 19 20 20 20 19 19 19 19
15 15 15 17 20 19 18 19 20 21 22 21 21 21 21 21 20 20 21 21 20 21 21 21 21 21 21 22 22 22 22 21 21 21 20 21 21 21 21 21 21 22 23 22 21 20 20 21 21 21 21 21 21 21 22 23 23 22 22 21 21 21 22 22 21 21 21 21 20 20 20 20 20 20 20 19 19 19 19 19 19 19 19 19 19 19 19 19
Height
796 795 794 792 791 790 789 788 787 786 785 785 784 784 783 782 781 780 779 778 778 777 776 775 774 773 773 772 772 771 770 769 768 769 766 757 755 759 760 761 763 764 765 767 769 771 774 776 777 778 780 782 783 784 784 784 785 791 801 809 809 806 805 802 800 800 799 800 801 800 798 801 804 802 798 797 802 804 805 806 805 804 803 806 810 814 817 820
795 794 793 792 791 789 788 787 786 785 784 783 783 782 782 781 780 779 779 778 777 776 775 774 773 773 772 772 771 770 769 767 767 766 758 752 755 757 758 761 762 763 764 766 768 769 773 776 776 778 781 784 785 784 786 785 787 795 803 809 806 802 798 793 793 795 795 799 800 800 799 800 803 802 799 804 810 808 810 813 810 811 811 810 813 816 819 820
794 794 793 792 790 789 788 786 785 784 783 783 782 781 780 780 779 778 778 777 776 775 775 774 773 773 772 772 771 770 770 768 766 759 751 751 754 755 757 760 761 763 764 765 767 768 771 773 776 779 783 787 786 786 789 788 789 794 800 807 802 797 797 792 790 792 793 796 800 801 799 800 802 800 800 807 812 812 814 816 815 817 816 814 815 818 820 822
794 793 792 791 790 788 787 786 785 784 782 782 781 780 779 778 778 777 777 776 776 775 774 773 773 772 772 771 771 771 770 769 762 752 749 751 752 754 757 759 760 762 764 766 768 770 771 773 776 778 784 790 787 787 791 789 790 793 798 803 795 791 797 793 790 791 793 797 801 801 800 803 801 799 802 806 814 817 814 811 811 814 814 814 816 818 821 823
793 792 791 790 789 788 786 785 784 783 782 780 780 779 778 777 777 776 776 775 775 774 774 773 772 772 772 771 772 770 770 770 759 749 750 750 750 753 755 758 760 762 765 767 768 770 771 773 776 780 786 791 790 790 792 786 786 793 794 793 789 788 794 791 789 792 795 800 803 803 804 804 801 801 804 806 814 817 811 807 807 808 810 812 815 818 821 824
793 791 790 789 788 787 785 784 783 782 781 779 778 777 777 776 775 775 775 774 774 774 773 773 772 772 772 772 772 770 771 768 755 749 751 749 750 752 755 758 760 762 765 767 768 770 772 773 779 785 788 791 793 792 790 784 784 793 792 787 786 785 789 790 790 794 797 801 805 805 803 802 804 807 806 806 811 809 804 805 806 807 808 811 815 819 822 824
792 791 790 789 787 786 785 784 782 781 780 778 778 776 776 775 774 774 774 773 773 773 773 772 772 772 772 772 772 771 772 764 751 750 751 749 751 752 755 758 759 763 765 767 768 770 772 775 781 785 789 792 792 790 788 784 784 792 793 786 784 783 787 791 791 794 794 798 801 800 802 804 808 810 807 807 808 804 802 805 807 809 810 813 816 819 822 825
792 791 789 788 786 785 784 783 781 780 779 778 777 775 775 774 774 773 773 773 772 772 772 771 772 771 772 773 771 772 771 760 750 751 751 750 752 753 756 758 760 763 764 767 768 770 773 777 781 782 790 791 788 788 786 787 790 792 791 785 783 785 790 793 792 792 792 795 797 799 804 807 807 807 808 809 806 802 802 806 808 810 812 815 818 820 823 825
792 790 788 787 786 784 783 782 781 779 778 777 776 774 774 773 773 772 772 772 771 771 771 771 771 771 773 773 772 771 764 754 750 751 751 752 753 754 757 757 761 762 764 768 768 770 773 778 780 780 787 788 785 786 784 790 793 788 787 784 785 790 795 796 793 792 793 795 796 801 807 807 804 805 809 809 805 803 802 807 811 812 815 817 819 821 823 826
791 789 788 786 785 784 782 781 780 778 777 776 775 774 773 772 772 771 771 771 770 770 770 771 771 772 773 773 773 770 757 751 752 751 751 753 753 755 757 758 760 762 764 768 768 770 772 775 776 775 781 784 784 785 784 788 786 781 784 785 788 795 798 797 796 794 794 796 796 802 810 808 804 808 813 809 803 802 805 811 813 814 818 819 821 822 824 826
790 789 787 786 785 783 781 780 779 777 776 775 774 773 772 771 771 771 770 770 769 769 770 770 771 772 773 773 774 767 754 751 752 751 752 753 754 755 757 758 760 762 764 767 769 770 771 773 772 774 782 784 783 784 783 780 778 779 783 788 794 799 802 800 800 799 797 800 799 800 808 809 807 811 813 808 803 803 807 813 815 817 819 820 822 823 825 827
789 788 786 785 784 782 780 779 778 777 775 774 773 772 771 770 770 770 769 769 769 769 769 770 771 772 772 773 771 761 752 752 752 752 754 753 755 756 757 759 760 762 764 766 769 770 772 772 771 778 783 782 785 787 782 774 776 781 782 793 801 803 808 805 801 800 799 804 799 798 813 817 813 814 810 805 804 805 809 815 817 818 820 821 823 824 826 827
788 787 786 784 783 781 780 778 777 776 774 773 772 770 770 769 769 769 769 769 768 769 769 770 771 772 773 771 761 754 752 753 753 753 754 755 756 757 758 760 761 763 765 766 769 770 772 772 773 778 779 782 787 783 777 773 776 783 785 794 803 809 815 807 801 802 802 805 797 800 822 825 815 812 808 805 806 808 813 816 817 819 820 822 824 825 827 827
787 786 785 783 782 780 779 777 776 775 773 772 771 770 769 768 769 768 768 769 768 769 769 770 771 772 773 766 754 752 753 752 753 753 754 755 756 758 760 761 763 765 766 768 769 770 772 773 774 778 778 781 782 777 778 781 782 788 792 796 804 815 818 807 801 803 806 807 799 804 824 823 815 812 808 807 808 810 816 817 818 819 820 822 824 826 827 827
787 785 784 782 781 779 778 777 775 774 773 771 770 769 768 768 768 768 769 769 768 769 769 771 772 772 773 764 752 752 753 752 753 752 754 755 756 758 760 762 764 766 767 769 770 771 772 774 777 782 781 777 778 783 788 790 789 792 801 809 809 813 816 808 801 801 806 808 803 810 823 821 815 813 808 808 810 811 817 818 818 820 821 823 824 826 827 827
786 785 783 782 780 778 777 776 775 773 772 770 769 768 768 768 768 768 769 768 769 770 770 772 771 772 773 763 752 752 753 752 752 752 753 754 755 758 760 762 764 767 769 770 771 772 772 774 778 781 781 781 784 789 794 800 802 797 803 814 812 811 817 814 806 801 801 807 809 813 822 822 816 812 809 809 811 813 817 819 819 820 821 822 824 825 827 827
785 784 782 781 779 778 777 775 774 772 771 770 769 768 768 769 768 769 769 769 770 770 770 772 772 772 767 756 753 755 753 752 752 752 753 754 756 757 759 763 765 767 770 771 772 773 774 777 780 782 783 787 789 790 801 813 815 807 805 811 809 809 815 817 813 805 801 808 813 814 819 820 815 811 811 811 811 814 817 819 819 820 822 822 823 825 826 828
784 783 782 780 779 777 776 774 773 771 770 769 768 768 769 769 769 770 770 769 770 771 772 772 772 773 767 756 756 757 753 753 752 752 753 755 757 758 759 762 764 767 771 774 775 775 778 780 783 788 789 790 790 792 804 811 810 811 810 809 809 808 812 816 814 807 803 809 813 816 819 819 815 812 813 812 812 815 816 818 819 819 821 822 823 825 826 827
783 782 781 779 778 776 775 774 772 771 770 769 768 768 769 770 770 770 770 771 771 770 770 770 768 770 768 759 755 754 752 752 752 752 753 755 757 759 760 761 764 768 774 779 780 779 781 785 790 795 795 793 792 791 797 799 796 802 806 806 808 810 811 810 808 803 802 810 815 816 819 819 817 815 815 815 814 816 817 817 820 821 821 822 823 824 825 826
782 781 780 779 777 775 774 773 771 770 770 769 769 769 770 771 771 771 770 769 768 764 763 764 763 764 762 757 754 753 751 751 751 752 753 754 756 760 761 762 766 770 774 780 784 780 781 792 797 796 794 791 791 788 789 791 790 796 804 805 804 808 809 804 804 802 798 809 817 814 817 819 818 817 815 816 817 818 818 819 821 821 821 822 823 823 824 824
781 780 779 777 776 775 773 772 771 770 769 769 769 769 770 771 773 773 769 765 761 759 760 759 760 760 757 755 753 753 754 753 752 751 753 754 755 762 765 766 772 777 778 779 782 780 784 797 798 790 788 788 788 786 787 790 790 794 801 803 804 808 809 802 802 802 797 808 818 815 820 822 818 817 815 815 819 820 818 818 820 821 821 821 822 823 823 822
780 779 777 776 775 773 772 771 770 769 769 769 769 769 769 769 770 768 767 767 761 757 759 758 759 759 753 752 752 752 758 759 756 753 753 754 757 764 768 769 776 781 780 780 784 788 793 797 792 787 788 789 788 787 789 792 792 794 797 801 804 806 807 805 803 801 798 808 819 818 822 824 818 816 816 816 818 819 816 816 818 819 821 821 821 821 821 822
779 778 776 775 774 773 771 770 769 769 768 768 768 768 768 767 766 765 767 770 765 757 758 759 759 757 754 752 750 752 758 760 760 756 752 755 760 764 768 772 777 780 781 783 788 796 800 794 786 786 788 789 790 790 790 793 794 796 798 801 804 803 807 811 810 805 800 805 816 820 823 823 819 817 818 817 817 818 817 816 816 817 819 819 818 819 820 821
778 776 776 774 773 772 770 769 769 768 767 767 767 766 766 765 764 764 765 770 770 760 755 755 755 755 753 750 748 752 756 757 759 756 751 755 762 764 767 771 777 781 783 783 786 792 794 788 783 786 788 788 792 793 792 795 798 798 797 798 801 801 804 808 809 806 805 807 811 819 830 828 821 822 823 820 819 819 818 818 817 816 816 817 816 816 817 818
776 776 774 773 772 771 769 768 768 767 767 766 766 765 764 764 763 762 765 774 776 763 754 754 754 753 749 748 749 750 753 755 755 753 750 753 759 764 768 769 775 783 786 785 787 790 788 783 781 785 788 788 792 795 793 795 799 799 794 792 793 795 800 805 806 808 820 825 813 815 838 838 823 822 824 822 823 822 820 819 819 817 816 816 816 815 815 816
776 774 773 772 771 770 769 768 767 767 766 765 765 764 764 763 762 762 768 780 780 767 759 757 757 754 749 750 750 748 758 760 751 749 750 751 753 759 769 772 773 781 783 782 785 787 784 780 779 784 787 789 792 795 793 792 800 803 791 784 787 791 798 805 806 813 827 830 813 807 830 839 829 823 820 820 824 823 821 820 818 817 816 815 815 814 814 815
775 773 772 771 770 769 769 767 767 767 766 766 764 764 763 762 762 760 770 789 788 771 763 760 757 754 750 751 748 753 770 765 751 750 750 751 752 754 768 776 775 778 776 780 790 787 781 780 782 783 786 790 794 795 792 790 798 800 786 781 787 791 798 803 805 814 819 817 814 810 817 832 832 823 815 815 823 824 822 820 817 815 814 814 813 811 812 812
773 772 771 770 769 769 768 767 767 765 765 765 763 763 763 761 761 762 777 802 794 769 764 761 753 751 750 750 749 756 765 760 760 760 748 750 755 756 769 775 774 777 772 781 795 787 777 780 782 782 787 792 792 789 787 787 792 789 782 782 784 788 796 798 804 813 812 817 829 823 817 830 833 821 813 815 822 824 820 817 814 812 812 811 811 810 810 810
773 771 770 769 768 768 767 767 766 764 764 763 762 763 761 760 762 767 786 804 789 766 763 760 753 753 753 753 755 757 758 757 764 761 750 753 755 756 769 771 770 776 773 778 788 782 776 775 774 778 785 787 784 781 780 784 786 780 779 783 784 790 795 798 806 812 814 823 833 827 820 829 833 824 821 822 823 819 812 810 809 808 808 808 809 809 809 810
772 770 769 769 767 767 767 765 764 763 763 761 762 761 759 762 767 781 800 801 783 770 764 759 759 760 759 761 763 762 761 761 760 758 756 759 757 757 764 765 767 774 776 778 781 778 773 769 770 774 777 776 774 777 777 778 777 774 780 787 793 799 798 803 811 815 830 835 826 821 819 824 830 824 819 816 808 802 802 807 807 805 806 806 806 807 807 808
771 769 768 767 767 767 766 764 762 762 762 761 761 758 761 768 776 795 805 790 778 775 765 763 764 762 763 768 769 766 765 764 761 762 765 765 765 765 769 771 773 779 784 783 780 779 775 774 773 768 766 767 771 777 777 775 774 777 784 789 802 812 810 819 825 824 842 842 820 816 817 823 830 819 810 804 792 791 796 801 802 801 803 803 803 804 804 806
769 768 767 766 766 765 765 764 761 761 761 760 760 760 766 778 788 800 798 781 779 779 768 767 767 764 766 768 769 768 767 767 764 765 769 771 773 773 775 778 779 788 797 792 786 783 777 773 772 765 761 763 771 780 782 781 780 784 789 792 809 829 832 840 844 839 844 835 817 814 816 825 825 807 801 800 791 790 790 790 793 796 798 799 801 802 802 804
768 766 766 765 764 763 763 762 761 761 760 758 761 763 771 788 799 799 790 782 782 774 766 768 766 765 767 768 771 769 768 770 767 767 770 772 777 778 777 777 776 785 795 794 793 790 782 775 769 767 765 760 766 779 786 787 787 788 792 794 809 832 846 855 856 850 844 830 816 812 816 824 816 799 798 798 790 787 784 784 787 789 793 796 798 800 801 803
767 765 765 764 763 762 761 761 761 760 759 758 763 768 779 798 801 792 787 782 777 769 767 770 768 767 769 770 772 769 770 773 769 769 772 773 780 783 780 778 777 779 784 791 794 793 796 790 773 767 768 762 763 770 773 777 784 786 783 786 798 811 828 845 849 844 839 831 822 818 819 821 811 801 798 791 786 784 781 782 784 786 790 792 795 799 801 803
766 765 764 763 762 762 761 761 760 759 759 760 766 776 791 803 799 791 786 779 772 770 770 770 769 772 773 772 771 768 770 774 771 772 776 779 785 787 784 780 778 778 783 793 794 791 799 793 769 762 764 761 762 762 761 769 782 785 778 784 794 790 795 816 826 822 822 827 830 825 817 811 803 798 794 789 786 784 781 782 784 787 789 791 796 799 800 802
765 763 763 762 762 762 761 761 760 759 761 763 772 787 795 794 790 787 781 772 772 774 772 773 774 778 780 776 776 772 767 770 774 777 782 786 786 786 786 781 777 777 780 788 791 790 798 789 766 762 762 757 760 759 758 766 777 784 785 786 785 776 778 800 815 814 814 825 831 824 814 808 804 800 796 794 792 788 785 784 785 788 789 792 795 796 798 799
764 763 763 762 762 762 761 761 760 760 762 767 778 790 790 783 779 778 774 769 772 772 774 781 784 784 786 784 782 777 770 771 777 780 787 791 788 784 784 779 776 776 775 780 784 785 793 787 768 764 764 757 755 756 756 757 763 778 785 779 775 778 780 790 811 822 824 828 828 823 820 816 812 808 803 802 801 797 793 788 788 790 790 792 794 794 796 798
764 763 764 763 763 762 761 761 761 761 765 773 783 788 785 780 776 773 771 770 771 772 777 787 787 785 788 789 786 780 776 778 780 784 789 792 789 784 783 780 776 775 774 775 779 780 787 790 774 764 767 761 754 759 764 760 757 764 769 764 771 789 792 791 806 820 828 835 832 827 827 822 817 815 812 812 810 805 799 794 792 793 792 793 794 793 796 798
764 765 767 766 763 762 762 762 762 763 769 780 789 788 783 779 774 771 771 771 772 774 780 787 785 783 786 788 786 782 781 782 783 788 792 793 791 783 780 781 776 774 774 773 778 780 784 792 783 766 765 765 759 764 772 770 763 761 763 765 769 779 785 788 796 801 813 831 836 829 826 822 818 818 816 814 811 806 802 799 797 796 795 794 794 796 799 800
766 769 771 767 763 764 763 762 764 769 777 786 790 786 782 779 773 770 770 770 773 775 780 785 784 784 785 785 785 783 783 785 785 789 792 792 791 784 778 781 778 775 774 772 776 780 783 793 790 772 765 769 770 770 771 770 768 767 770 774 775 776 778 784 793 797 801 816 828 827 825 822 817 813 811 809 807 805 802 801 800 798 797 797 797 799 800 801
768 774 773 767 765 766 764 766 773 779 783 787 788 785 781 777 774 772 770 769 772 773 776 780 782 784 785 785 786 784 783 788 789 790 792 790 791 789 781 779 779 777 775 774 777 780 784 791 793 784 774 774 773 767 765 766 765 766 768 770 773 776 780 789 802 806 801 804 815 818 817 821 817 808 805 805 803 802 802 801 801 800 799 800 800 800 801 802
772 778 774 766 766 765 766 774 782 784 784 784 784 782 779 776 776 776 772 771 773 773 774 777 780 783 783 783 785 784 785 791 793 791 792 791 790 789 782 777 778 777 776 779 780 778 780 788 793 788 779 775 771 765 766 768 764 763 765 768 771 771 775 786 796 802 804 806 812 812 812 818 815 805 803 804 801 801 802 800 801 802 801 802 801 801 802 803
777 778 770 766 766 765 770 781 784 783 783 781 781 780 778 778 779 777 775 775 776 776 776 779 780 781 782 782 784 784 786 792 795 791 790 791 787 783 781 777 776 776 776 780 782 777 780 791 793 787 779 772 766 763 764 764 764 767 768 770 774 772 771 776 783 790 799 806 808 808 814 819 813 804 803 803 802 803 802 801 802 803 803 803 803 802 803 804
780 778 772 768 766 766 775 786 787 785 785 782 781 780 778 779 779 779 779 780 779 779 780 781 782 781 782 782 783 786 788 792 794 793 791 791 787 781 780 777 775 776 777 779 780 778 784 796 797 793 793 788 781 778 774 768 769 775 777 774 774 773 772 777 783 786 794 807 806 800 810 819 812 804 804 804 804 806 805 803 802 803 804 805 804 804 804 805
780 779 776 771 767 770 778 785 786 786 786 786 786 786 784 781 780 781 782 782 781 781 782 782 781 781 782 783 785 788 788 788 791 793 791 790 786 780 779 778 776 777 777 777 776 776 785 797 797 796 805 812 810 804 796 788 784 782 781 777 775 775 773 774 783 787 792 807 807 797 807 820 813 806 807 807 808 809 807 806 805 805 806 806 806 806 805 806
781 783 783 777 773 775 781 784 785 785 786 787 790 791 790 788 783 780 781 782 782 781 783 785 783 782 783 785 788 791 790 788 789 792 794 792 787 782 780 779 778 776 775 775 775 776 784 796 798 796 803 811 812 806 797 794 792 789 785 781 780 781 776 773 780 785 790 805 808 801 808 818 814 811 811 810 810 811 810 809 809 809 809 808 808 807 807 808
785 790 792 788 783 782 783 785 787 787 785 787 792 794 794 793 788 783 781 782 784 783 785 789 789 788 789 789 791 795 795 792 791 793 797 795 789 786 783 780 779 777 774 775 777 778 785 796 798 796 800 803 804 801 794 791 792 794 793 789 786 784 777 771 777 782 786 796 803 804 809 814 813 810 810 811 811 811 811 811 811 811 810 809 809 809 809 810
788 792 794 792 791 791 790 788 789 790 787 787 791 795 796 796 794 792 787 784 784 785 788 793 796 796 795 791 792 798 800 797 796 798 798 796 792 788 784 782 781 779 777 778 779 780 789 800 800 795 795 798 799 799 795 791 791 793 795 794 792 788 778 772 781 789 785 783 789 800 809 811 809 807 807 809 810 810 812 811 810 811 810 810 811 811 812 813
789 792 793 792 793 794 794 792 791 791 788 788 792 796 798 798 796 796 793 789 789 790 791 798 801 799 796 791 791 801 805 802 803 802 798 797 796 793 792 790 785 781 780 781 784 787 792 800 802 796 791 791 796 799 797 794 792 791 794 795 793 792 787 783 790 796 791 789 794 802 808 808 804 803 805 806 807 809 810 810 810 811 812 812 813 813 814 815
791 793 794 793 793 793 794 793 790 789 790 792 796 798 799 800 798 796 795 795 797 795 793 799 802 800 797 794 794 801 803 801 802 802 798 797 797 796 798 797 792 787 785 785 789 789 790 800 804 797 792 793 797 799 797 794 794 792 792 794 793 793 793 792 795 797 798 803 806 804 808 810 804 800 803 806 807 809 811 812 813 812 812 813 814 815 815 816
793 794 794 794 794 794 794 795 793 791 792 794 797 798 799 799 799 798 797 796 798 796 794 797 800 799 797 796 796 799 799 797 797 796 794 795 795 794 795 795 793 791 790 792 794 791 792 802 803 798 800 801 799 802 800 792 789 791 793 797 799 797 796 796 795 795 796 804 809 810 810 809 803 800 803 807 809 811 814 814 814 814 813 813 814 815 816 817
794 793 794 795 795 796 797 796 795 795 795 796 796 797 798 798 798 799 799 798 796 795 795 796 796 797 798 799 798 796 794 793 794 793 792 793 793 792 793 793 792 792 793 796 799 801 802 803 803 806 810 807 803 806 801 793 798 805 804 803 804 800 796 796 798 797 794 798 807 810 806 801 799 800 805 810 812 814 815 814 813 814 814 814 814 815 816 818
Wind_Speed
12 13 13 13 14 14 13 14 13 13 12 12 11 10 10 10 10 11 10 10 10 10 9 9 10 10 9 8 9 10 12 13 12 8 9 14 15 14 8 9 14 13 16 17 16 13 8 6 7 8 6 3 2 1 3 3 1 1 0 1 2 1 1 3 4 1 2 5 6 4 2 4 5 2 1 3 6 5 6 6 5 7 9 13 18 24 25 22
12 12 13 13 13 14 14 14 14 14 13 13 12 11 10 10 10 10 10 10 9 10 9 9 10 9 9 8 9 10 12 14 12 11 18 17 7 11 13 10 13 17 18 18 18 15 9 5 6 7 4 2 1 2 3 2 2 2 1 1 2 1 1 1 4 2 1 5 7 4 2 4 4 3 1 4 6 5 7 6 7 11 11 16 21 23 22 22
13 13 13 13 13 14 14 14 14 14 14 14 13 12 11 10 10 10 10 9 9 10 9 9 9 9 9 7 8 9 11 11 7 9 13 13 10 11 14 14 15 19 19 18 20 17 11 10 10 8 3 1 1 2 3 1 2 2 1 1 2 3 2 2 2 3 3 6 8 5 3 4 2 1 1 5 8 6 7 6 7 11 12 15 17 19 20 20
14 13 13 13 13 14 14 14 14 14 14 14 14 13 12 11 10 9 9 9 9 9 9 9 9 8 7 6 7 8 9 6 3 5 2 3 10 13 16 18 18 20 17 15 18 12 10 13 11 5 2 0 1 2 2 2 2 2 2 2 2 4 4 4 3 6 8 5 4 5 5 5 1 2 2 9 8 4 6 7 9 12 15 16 15 16 19 18
14 13 13 13 13 14 14 14 14 15 14 14 14 13 13 12 10 9 9 9 9 9 9 9 8 8 5 5 5 7 6 1 3 2 1 4 7 16 19 21 21 21 15 11 15 10 9 13 8 2 2 0 1 2 2 4 3 1 3 3 2 2 1 5 6 9 11 7 4 3 5 3 1 2 3 8 6 2 4 6 10 14 15 17 16 16 16 16
14 14 13 13 14 14 14 14 15 14 14 14 14 14 12 12 10 9 8 9 9 9 9 8 7 6 3 2 3 5 3 1 6 4 2 5 8 20 21 24 22 21 15 11 13 9 6 8 6 3 3 0 2 3 3 4 4 1 2 3 3 3 3 6 9 11 11 8 3 1 2 2 3 3 2 4 2 1 5 6 9 12 15 20 18 15 14 13
14 14 14 14 14 14 15 15 15 14 15 14 14 14 13 12 10 8 8 8 9 9 9 8 6 3 0 1 1 4 2 5 8 3 4 3 14 22 22 25 21 20 17 11 10 8 4 6 5 4 3 1 2 4 2 3 5 2 3 2 4 4 6 8 12 12 10 9 6 3 3 2 4 3 1 2 1 1 8 8 10 14 17 20 16 13 13 12
14 14 14 14 14 15 15 16 16 15 15 15 14 14 13 12 10 8 7 7 9 9 8 7 4 1 2 1 1 4 1 6 6 2 4 3 19 23 24 22 18 20 19 14 10 7 5 6 5 3 2 2 2 3 3 3 3 4 4 1 2 4 10 11 11 11 9 8 6 6 5 3 2 2 1 3 2 4 12 11 11 14 15 15 13 12 12 12
15 15 14 15 15 15 16 16 16 16 15 14 14 14 13 11 9 7 6 7 8 7 7 5 1 3 3 1 1 3 4 4 5 3 2 8 20 23 23 19 17 19 18 14 11 8 6 5 5 4 2 3 2 2 4 4 2 6 4 1 5 9 12 10 9 10 8 7 8 9 6 3 1 1 2 3 1 9 14 12 12 12 13 12 11 11 11 11
15 15 15 15 15 16 16 17 17 16 15 14 14 13 13 10 8 6 5 7 6 6 5 1 2 4 3 1 3 1 5 5 6 2 4 11 20 23 21 18 19 20 16 13 10 8 5 4 4 3 3 1 2 2 4 4 2 3 4 6 9 12 11 7 8 9 7 6 8 10 7 3 2 1 2 1 1 11 14 13 12 12 12 11 10 9 11 12
15 15 15 15 15 16 17 17 17 16 15 14 14 12 11 10 7 5 5 5 4 3 3 1 3 4 3 1 3 3 3 7 6 2 6 13 19 22 21 19 20 20 16 10 9 10 5 3 3 2 2 1 4 2 3 4 2 7 9 9 11 13 11 8 7 6 5 4 6 10 7 3 2 1 2 2 4 12 14 13 12 11 11 10 10 8 9 11
16 15 15 16 16 17 18 18 17 16 15 14 13 11 9 8 6 4 4 3 3 2 0 1 5 5 1 1 4 8 3 8 9 5 6 14 17 19 20 18 20 21 18 11 9 13 8 2 4 3 1 2 4 2 2 3 3 7 5 7 9 10 8 7 8 5 3 3 5 10 7 0 1 1 3 4 5 11 14 13 12 11 10 9 9 7 7 10
16 15 16 17 17 18 18 18 17 16 16 14 11 9 7 6 4 3 2 1 1 1 2 3 6 5 1 1 6 7 6 7 8 5 4 14 15 14 15 15 17 18 16 11 8 13 12 3 5 3 2 2 3 3 2 1 4 5 3 5 7 6 3 3 7 6 4 4 5 5 3 5 4 2 4 3 5 12 13 12 12 10 9 8 8 7 6 9
16 16 16 17 18 19 19 18 17 16 15 14 10 7 6 4 2 2 1 1 1 2 4 6 7 4 1 5 7 4 4 6 6 5 5 13 12 8 10 11 12 13 11 7 4 6 13 9 1 2 2 1 3 4 5 3 3 4 3 3 3 3 2 2 5 7 5 2 3 1 1 6 4 4 5 2 4 12 13 12 12 10 9 8 8 8 7 8
17 17 17 18 19 19 19 18 17 16 15 12 8 6 4 3 1 2 2 3 4 5 7 7 5 2 1 6 7 2 2 4 7 7 7 12 11 7 8 10 10 11 9 5 4 3 7 8 2 1 3 2 0 3 3 2 3 3 3 0 1 2 3 3 5 5 5 3 4 2 1 3 2 5 6 3 3 10 13 11 11 10 10 9 8 8 7 7
18 18 18 19 19 19 19 19 18 17 14 10 6 4 2 0 2 3 3 4 6 8 8 5 2 2 1 4 3 1 2 4 6 5 7 12 10 6 9 11 9 9 7 5 4 2 2 4 2 2 2 2 2 4 3 3 3 2 2 1 1 2 3 3 3 3 5 8 4 3 1 1 1 5 6 3 3 9 12 11 11 10 10 10 8 8 7 7
19 18 19 19 19 19 19 18 18 18 13 7 3 1 0 2 4 4 4 5 7 8 6 3 1 2 1 5 3 1 3 4 5 4 8 12 8 7 12 9 6 8 6 3 4 3 0 1 1 1 1 1 2 4 4 1 1 1 2 1 2 2 4 3 3 3 6 8 5 4 1 1 3 7 7 5 5 9 11 11 11 10 9 9 8 8 8 8
19 18 18 19 18 18 19 18 18 17 11 5 2 2 3 4 4 4 4 6 7 5 2 1 1 1 2 4 3 3 6 7 6 4 8 11 7 9 12 7 6 10 6 2 2 1 1 1 1 1 2 1 1 4 3 3 4 3 1 1 1 1 3 4 3 6 9 7 5 4 2 2 5 7 7 5 5 9 11 11 10 10 10 9 8 8 8 8
19 18 17 18 18 18 18 18 18 14 10 6 5 7 7 6 5 3 4 6 3 0 1 2 1 1 1 4 5 8 10 9 7 3 9 12 9 9 8 7 7 8 6 3 1 1 2 2 2 1 2 2 3 5 5 4 6 9 4 2 3 2 2 3 3 6 11 7 5 5 3 5 8 7 7 6 5 8 10 8 8 9 9 8 8 8 9 9
18 17 17 17 17 18 17 18 18 11 9 5 7 9 5 3 3 2 1 2 4 4 4 4 4 1 4 4 6 9 9 5 3 3 11 13 12 9 3 4 5 5 4 5 2 2 4 3 2 3 6 4 4 5 5 2 4 9 5 3 3 3 1 1 4 7 10 7 5 4 3 6 9 7 8 7 5 7 9 8 8 9 9 9 9 9 10 10
18 17 17 17 17 18 17 18 16 9 9 5 7 5 2 0 2 2 3 3 5 7 7 5 4 4 8 7 5 4 4 2 1 1 9 13 12 8 1 2 5 4 2 4 3 1 4 4 5 6 7 5 5 6 4 4 4 5 5 3 2 2 1 1 4 8 8 4 3 5 4 6 8 7 7 8 8 10 10 9 8 9 10 9 9 10 10 8
18 16 16 16 16 17 17 18 13 7 10 7 4 3 1 1 2 2 1 3 6 5 7 5 2 6 9 10 10 3 3 1 2 2 7 11 7 5 1 4 5 2 0 3 3 3 2 4 7 7 5 4 2 2 4 5 3 3 3 3 1 2 1 3 2 8 7 2 3 6 5 5 7 8 7 8 10 10 9 8 6 7 9 10 10 10 10 9
17 16 16 16 16 16 17 16 8 6 11 7 1 2 2 6 4 5 1 1 5 3 3 3 3 5 5 5 7 6 4 2 1 2 7 10 3 3 4 5 4 3 2 4 4 3 2 4 6 5 5 6 3 1 4 4 2 2 3 4 1 3 3 2 1 6 5 2 5 6 3 3 6 7 7 7 6 5 5 5 3 4 6 10 11 9 9 10
17 15 14 15 15 16 18 12 4 8 14 7 1 4 9 13 4 4 1 1 3 5 3 5 4 4 3 1 6 8 3 3 2 1 8 10 3 3 4 3 4 3 1 4 6 5 4 5 3 5 5 6 4 2 3 2 1 2 3 5 3 4 4 2 3 5 3 3 7 8 3 2 5 7 6 5 5 4 4 5 6 4 4 6 9 9 9 10
17 14 13 14 14 15 16 6 2 11 14 5 3 10 15 16 6 4 2 3 2 5 3 2 1 2 3 1 6 5 2 2 3 3 7 9 6 3 2 2 3 2 3 4 6 3 6 5 4 6 4 4 5 2 3 4 2 3 4 8 6 6 5 6 9 6 3 1 4 7 3 2 4 7 7 6 7 7 5 7 11 8 4 5 8 9 8 8
17 13 12 13 14 15 11 1 4 15 10 2 6 12 15 13 4 4 3 3 2 4 3 1 0 1 3 1 3 3 3 1 4 2 5 9 8 4 2 1 1 2 5 4 3 2 3 2 5 6 4 4 4 2 4 4 3 2 5 8 8 8 8 11 12 6 3 3 4 4 3 1 2 6 8 7 9 10 8 9 12 10 6 5 8 9 8 8
16 13 12 12 14 14 7 1 8 11 4 3 9 12 14 11 1 4 3 4 2 3 2 2 1 2 3 1 1 4 2 4 2 2 3 7 4 4 3 2 1 2 3 3 1 2 2 2 3 5 5 4 4 3 5 6 6 3 5 6 9 9 10 14 11 5 2 3 3 3 2 2 2 4 8 9 8 11 11 11 13 12 10 7 8 8 8 9
15 12 12 11 13 14 7 6 9 5 2 6 9 11 13 7 2 3 5 3 2 2 1 2 2 2 3 2 3 4 2 3 1 1 1 5 2 4 4 4 5 4 2 5 3 5 2 3 3 5 4 3 4 5 7 8 4 5 5 6 7 8 10 12 8 4 3 4 3 4 2 2 3 3 6 9 9 11 13 15 15 14 13 10 9 9 8 8
15 12 11 11 13 12 9 8 7 3 4 7 9 12 12 2 3 4 5 2 2 2 1 2 2 3 4 4 4 3 1 1 2 3 2 5 2 3 3 5 6 5 1 4 4 6 2 4 6 6 4 5 6 6 9 10 6 5 4 4 3 4 6 7 5 3 3 2 3 7 5 2 3 2 6 8 9 13 14 13 14 15 14 11 9 8 7 6
14 12 11 11 11 10 9 10 6 4 7 8 10 13 8 2 4 5 4 2 1 2 2 1 1 2 4 4 3 4 2 1 1 2 2 2 3 5 2 3 5 4 0 2 2 5 4 2 3 4 5 7 6 6 8 12 10 2 4 5 6 5 4 4 3 4 3 2 4 8 9 4 1 3 7 8 7 10 12 10 12 14 14 12 9 8 8 7
14 13 11 11 11 8 6 7 7 8 10 10 10 9 4 2 3 5 3 1 0 1 2 2 2 1 4 4 1 2 1 2 3 3 2 1 3 5 2 1 3 3 3 4 2 4 5 2 2 4 6 6 4 3 3 7 8 2 3 4 5 4 4 5 4 4 3 3 4 7 9 4 2 4 6 9 5 4 10 12 14 17 16 14 10 9 9 7
14 13 11 10 11 9 6 7 10 11 10 8 8 5 4 2 4 3 1 2 1 2 1 2 2 1 3 3 1 1 1 1 2 3 3 2 3 1 1 2 2 2 3 3 2 5 4 3 3 3 4 5 6 2 2 2 2 3 3 5 5 2 2 3 1 2 2 4 4 5 9 3 5 4 4 9 9 5 9 12 14 17 17 14 11 9 8 6
13 11 10 10 11 11 10 10 11 9 8 7 4 4 6 5 3 2 3 2 1 2 1 1 1 2 3 3 1 2 2 0 1 2 2 2 3 0 1 2 4 3 0 3 1 3 3 5 3 1 3 3 7 5 1 0 3 5 5 4 4 3 2 2 1 1 2 4 2 5 8 2 4 2 3 6 9 7 8 10 12 14 15 15 12 9 7 6
10 9 9 11 12 11 10 8 7 6 8 5 4 5 7 5 1 2 3 3 2 2 2 1 2 3 4 2 1 2 2 2 1 2 3 3 4 2 2 3 1 3 2 2 1 1 1 4 4 4 2 2 6 7 6 5 5 5 5 5 5 4 4 4 3 3 3 1 1 4 5 2 2 1 6 6 7 6 6 8 9 11 11 11 10 9 7 7
9 8 10 10 11 10 9 6 4 5 7 5 5 5 6 2 3 1 2 4 2 2 3 3 4 5 4 2 3 1 2 1 2 4 4 3 2 0 1 3 2 2 3 2 2 1 2 4 7 4 1 4 4 5 6 7 3 3 3 5 3 5 5 3 4 5 4 3 2 2 3 3 4 2 6 6 4 2 5 7 8 10 10 9 10 9 8 8
8 8 9 9 9 10 9 6 4 6 6 5 6 5 2 1 2 1 2 2 1 2 3 5 5 5 4 4 4 5 1 2 3 4 4 2 1 1 1 3 2 1 4 3 2 1 1 4 6 4 1 4 5 5 5 4 3 1 3 4 4 5 7 5 2 0 3 4 1 1 2 4 1 1 6 9 9 5 3 7 9 9 11 11 10 10 9 8
9 8 6 8 10 9 7 4 4 6 6 6 6 3 2 2 2 3 2 1 1 1 4 3 3 2 2 2 3 5 4 3 3 3 2 2 2 2 3 4 2 1 3 3 2 2 2 3 6 2 1 4 4 5 2 2 6 4 3 5 3 2 4 4 3 2 3 3 2 0 2 3 1 1 5 9 9 8 3 5 7 8 10 11 10 10 10 8
10 6 4 8 11 6 4 4 4 5 5 5 4 1 1 1 1 2 1 1 1 3 6 3 0 1 1 1 2 4 3 2 2 3 2 2 1 1 2 3 3 1 2 3 1 1 2 2 7 2 2 5 2 4 1 2 4 4 4 5 4 3 1 1 3 2 2 2 2 2 2 2 2 2 4 7 6 6 4 4 6 6 8 9 9 9 8 7
7 4 3 9 10 3 4 4 4 5 6 5 3 0 1 2 3 2 1 1 1 4 5 1 0 2 2 1 1 3 3 3 1 2 2 1 1 0 1 1 3 3 1 4 3 1 1 1 4 5 3 3 4 3 2 2 1 2 2 2 2 3 4 3 2 3 4 3 2 1 2 2 3 2 2 2 3 3 3 5 5 5 4 4 5 6 6 6
4 2 1 8 10 6 4 2 5 6 4 3 0 1 2 2 3 5 3 1 2 2 2 0 1 2 2 1 1 1 3 3 2 3 1 1 1 2 2 1 2 5 4 4 3 0 1 2 2 6 3 1 1 1 4 5 2 2 3 1 1 1 2 2 1 2 4 4 3 2 1 3 3 2 2 2 1 2 5 6 6 6 6 5 5 5 5 6
3 3 2 7 7 2 1 4 4 3 2 1 1 2 2 1 2 6 5 3 3 1 2 2 2 2 1 2 2 1 2 3 3 3 2 1 2 0 2 1 2 3 3 5 4 1 0 1 1 4 4 1 4 5 4 5 6 4 4 4 4 3 3 3 1 1 2 4 4 4 3 4 3 1 2 2 4 5 6 7 7 8 8 8 7 7 6 6
4 2 3 7 5 3 2 5 1 1 2 1 1 1 2 2 2 4 5 4 3 2 2 3 2 2 1 1 2 1 3 3 3 3 2 0 2 2 3 4 3 1 2 2 2 2 2 3 1 3 3 3 7 6 3 4 5 4 3 3 4 4 4 5 4 3 2 3 2 3 2 3 3 2 3 2 4 6 7 8 9 8 8 8 9 9 8 6
3 1 3 9 4 3 5 4 3 3 1 3 1 1 2 2 2 3 4 5 3 2 3 3 1 2 2 1 1 2 3 2 2 2 0 0 1 2 5 7 3 2 4 2 2 1 1 3 2 3 4 4 6 6 3 1 3 4 2 1 2 1 3 5 5 4 3 3 2 3 1 3 2 2 3 4 6 6 6 8 9 8 7 7 9 10 10 8
1 3 3 9 6 2 4 2 2 3 3 3 3 3 3 2 3 3 4 4 3 1 2 2 1 1 2 2 3 2 1 2 2 1 0 1 0 2 5 7 4 2 2 0 1 1 1 1 2 2 3 4 5 6 6 4 4 3 2 4 2 2 5 5 2 3 3 4 4 4 3 3 2 4 5 7 8 7 6 7 7 7 7 7 9 10 10 9
1 1 3 7 8 5 3 3 3 0 3 3 4 4 4 3 2 2 1 2 3 1 2 2 2 2 2 3 4 3 3 3 2 2 2 1 3 3 5 8 5 3 1 1 0 1 2 1 2 3 3 2 0 2 3 4 4 2 3 5 4 3 7 5 3 4 2 4 4 4 3 2 4 6 7 8 8 8 7 6 6 6 7 7 8 9 8 8
2 1 2 6 6 6 2 1 3 2 1 2 3 3 4 2 3 2 2 3 3 4 3 3 3 3 3 4 5 5 7 4 3 3 3 3 3 3 4 6 5 6 6 4 4 3 3 2 2 5 5 3 2 4 5 3 2 4 6 7 6 1 3 6 5 3 4 4 2 3 5 7 8 9 9 9 9 8 7 6 7 7 7 7 7 7 7 7
3 1 1 2 3 4 3 3 5 2 1 3 2 2 4 3 3 4 3 3 3 4 4 3 5 4 2 3 5 4 6 6 5 4 2 3 3 3 5 4 6 10 9 5 5 3 4 3 4 4 6 4 1 4 6 3 1 3 6 7 7 4 2 7 4 4 6 6 2 5 7 10 10 10 10 9 9 8 6 6 7 7 8 8 7 7 8 8
2 1 1 1 1 1 1 3 4 4 3 4 3 1 4 4 3 3 3 3 4 4 3 3 7 5 2 0 4 2 5 5 5 4 2 3 3 4 6 4 5 9 7 5 5 3 5 3 3 1 4 5 6 7 7 4 1 2 5 6 8 7 2 6 2 2 5 5 4 6 10 11 10 11 11 10 10 9 8 6 6 7 9 9 7 6 7 7
2 1 1 1 1 3 2 3 4 3 5 4 3 3 2 4 4 1 2 3 5 5 4 4 5 6 5 4 5 3 3 2 3 3 2 2 3 3 4 4 4 7 6 5 5 2 4 2 4 1 3 5 8 10 9 7 4 3 6 8 9 8 4 6 4 3 5 4 4 9 12 9 8 10 10 9 8 8 8 7 6 8 9 9 7 7 7 8
2 1 2 2 2 1 1 3 2 3 4 4 3 2 2 3 4 2 2 3 2 4 4 5 1 3 6 7 6 4 1 4 3 3 2 1 2 1 1 1 3 5 7 4 4 3 3 2 4 2 3 4 7 10 12 10 5 4 9 11 11 10 6 5 5 5 6 7 7 11 11 6 5 8 10 10 8 8 8 8 7 7 8 9 8 8 8 9
1 1 1 3 2 3 2 2 3 4 3 3 2 1 1 1 1 2 3 2 1 0 1 5 3 1 4 7 7 3 3 6 6 6 5 3 1 0 1 1 2 2 5 4 3 4 3 2 3 4 4 2 4 9 13 12 6 5 11 14 12 8 4 3 2 2 5 9 11 10 7 5 6 8 11 10 9 9 8 8 7 6 6 8 9 8 9 9
3 1 2 3 1 3 2 2 3 4 1 1 2 1 1 1 1 2 3 3 2 1 3 6 5 3 5 7 5 4 6 6 6 6 4 3 2 2 2 2 3 4 2 2 2 3 2 3 2 3 4 3 4 7 9 9 6 4 7 9 8 6 2 2 4 4 4 9 10 6 4 6 9 11 12 11 10 9 8 7 7 7 7 8 9 9 10 9
Wind_Direction
344 343 341 340 339 337 336 336 335 334 334 331 331 329 326 325 322 321 317 316 319 320 323 319 318 318 318 317 311 308 314 315 311 302 254 253 246 226 222 197 190 176 166 168 168 152 133 144 162 163 149 154 176 150 168 167 112 82 65 345 298 259 172 162 158 177 107 128 139 149 181 125 119 91 52 103 89 96 87 67 68 68 84 104 118 133 138 139
343 343 341 340 338 336 336 334 334 332 331 329 329 327 325 323 320 318 314 316 317 319 325 321 319 317 316 318 312 316 323 319 313 288 252 249 248 210 208 189 181 181 169 168 174 160 144 156 155 146 131 142 172 157 163 161 144 158 135 24 277 268 3 154 140 141 123 132 140 139 126 119 125 128 142 123 113 108 94 89 94 92 98 107 121 135 137 137
342 341 340 338 336 336 336 333 333 331 329 328 327 325 323 320 318 316 313 316 318 321 323 322 322 316 315 312 313 327 328 327 314 273 259 248 234 205 188 176 178 181 172 175 181 173 169 164 150 142 113 132 157 159 171 157 172 175 124 291 263 154 141 259 169 139 113 124 136 134 111 105 102 65 120 130 120 116 119 129 125 120 125 122 130 138 136 138
341 340 339 338 337 337 335 334 333 331 330 329 326 325 321 319 316 312 311 313 318 323 322 325 324 315 314 308 315 332 329 334 294 254 264 254 223 201 183 172 176 179 169 173 175 163 158 149 145 149 104 65 237 156 178 185 179 154 163 236 238 159 164 196 169 111 105 103 122 126 111 112 122 2 114 137 126 132 156 161 151 143 140 134 140 142 139 141
339 340 340 339 340 338 336 336 334 332 331 330 327 324 321 320 317 315 315 313 317 322 326 327 321 314 311 312 326 334 342 37 301 287 78 320 209 184 181 171 176 179 158 154 166 145 128 137 141 148 102 169 205 149 196 194 174 171 200 207 204 185 152 150 125 103 105 80 43 92 103 119 156 33 121 146 138 149 163 168 152 144 142 140 143 143 141 143
338 338 339 340 341 340 339 339 336 335 333 332 330 326 323 323 324 323 317 314 318 321 328 326 314 315 310 325 339 347 25 185 302 318 342 330 176 172 173 169 174 178 162 148 162 154 119 123 135 147 125 114 204 202 231 188 173 236 243 202 190 183 139 128 104 91 97 102 117 140 76 65 91 72 74 125 130 123 120 139 141 136 139 139 141 143 145 147
336 336 339 341 340 339 340 340 339 338 335 333 330 328 328 329 330 323 314 314 318 320 325 324 310 300 77 13 339 27 75 255 296 303 327 6 161 166 164 168 172 174 173 159 150 154 129 115 137 142 122 149 216 226 246 169 182 238 278 211 189 157 114 108 104 105 118 138 152 124 74 46 100 119 55 56 317 141 114 124 131 131 136 138 142 146 149 151
334 334 338 340 340 341 340 340 341 339 335 331 328 329 329 330 328 319 315 314 318 323 320 318 308 197 118 145 197 18 321 262 301 283 310 128 156 160 160 167 174 176 175 172 161 152 138 127 152 141 116 210 205 217 199 135 187 224 242 230 149 100 98 107 113 119 130 140 130 108 100 66 89 137 89 23 319 130 120 125 130 132 137 141 147 149 151 152
333 333 337 339 341 344 342 339 339 337 335 332 329 329 328 328 328 320 312 314 319 322 318 314 300 135 125 195 113 9 269 277 322 278 269 156 159 162 166 170 177 177 170 173 170 156 158 155 172 157 144 229 208 224 191 144 232 218 213 43 97 93 97 113 128 131 133 140 134 124 115 101 80 34 83 6 331 131 124 129 136 139 143 146 150 151 153 154
334 333 336 338 341 345 343 341 338 335 335 334 331 330 330 329 328 320 309 315 317 315 321 336 131 128 146 261 90 105 271 322 331 258 163 165 165 165 174 177 178 177 165 167 172 166 164 161 180 147 106 253 264 255 190 175 235 166 117 71 86 90 98 116 133 142 134 137 145 133 120 111 65 338 128 21 151 135 126 133 144 146 150 152 152 153 155 158
336 335 336 337 342 344 344 344 340 337 335 335 333 331 330 327 321 316 313 313 313 320 319 150 126 142 168 99 125 204 304 3 6 82 156 174 171 173 182 183 182 179 163 156 177 181 159 131 151 93 91 287 294 284 204 209 140 121 109 83 78 83 103 120 127 150 126 121 152 126 108 88 61 341 158 137 151 139 133 141 150 152 154 154 154 152 156 162
340 338 339 339 343 345 346 345 342 339 337 337 336 332 325 318 312 310 316 315 315 8 39 155 133 153 160 52 212 228 301 16 16 31 154 177 177 181 186 187 186 184 174 165 187 193 184 107 67 71 195 311 316 300 262 255 132 128 107 94 97 89 109 134 140 168 128 123 159 120 100 199 168 105 129 120 143 141 137 146 154 156 155 154 157 155 158 163
341 341 342 342 345 349 348 345 344 342 339 340 336 329 316 305 306 297 304 342 346 53 124 146 145 152 76 265 246 247 264 318 337 353 157 180 185 185 189 191 189 188 182 168 180 198 200 197 49 53 250 345 297 274 334 340 127 128 63 95 122 99 104 160 150 155 104 132 178 126 116 211 192 131 124 112 142 145 143 153 157 157 157 158 161 161 165 167
344 345 345 345 349 351 348 346 345 343 342 342 336 325 306 288 284 242 229 93 84 89 128 135 142 137 86 256 276 308 270 278 287 273 190 184 183 178 189 191 187 188 177 145 119 188 204 213 354 352 256 235 253 297 350 14 88 114 87 76 107 116 158 174 156 146 107 143 231 12 128 203 186 150 152 123 146 152 151 159 160 159 161 161 165 167 172 176
349 349 347 347 350 351 349 347 345 345 346 344 337 323 299 276 245 198 159 110 106 105 117 123 130 119 17 279 280 323 269 269 271 256 215 194 179 161 178 181 183 186 182 164 113 129 184 190 177 312 265 255 276 360 1 21 31 83 107 49 359 104 142 141 159 162 125 154 250 316 107 196 176 161 160 122 146 162 158 163 163 162 165 163 168 171 176 183
353 351 348 347 350 352 349 347 345 347 350 344 337 327 300 233 130 133 127 109 113 115 112 113 109 99 83 288 293 3 275 278 288 273 219 203 192 166 156 157 164 173 181 184 183 196 153 146 163 190 271 294 101 80 40 35 10 7 92 163 206 121 128 137 162 193 133 141 204 262 161 122 148 160 153 119 160 170 162 167 168 166 168 167 171 174 176 182
354 351 349 346 349 351 348 347 347 351 355 351 338 297 58 121 133 117 110 113 122 127 113 100 75 62 266 284 308 353 317 306 307 282 203 197 202 169 146 135 131 145 148 158 184 223 86 98 229 238 8 27 116 98 75 63 239 304 52 117 212 140 136 148 153 179 151 145 179 217 181 125 138 153 160 159 173 174 171 172 172 170 173 171 171 176 180 182
355 351 348 345 347 348 347 347 349 356 5 11 33 135 122 116 123 103 105 118 120 124 91 49 76 54 271 292 307 293 309 309 314 301 186 183 188 164 146 133 123 127 123 107 142 154 83 14 38 9 348 40 144 128 136 212 178 142 125 143 167 150 155 167 155 168 168 161 172 175 151 126 135 146 164 175 173 179 180 174 173 174 174 176 175 178 184 186
354 351 348 344 345 345 345 348 350 360 15 28 91 119 125 114 102 93 98 109 117 165 295 244 171 62 246 264 286 299 308 299 294 276 174 165 164 163 142 125 127 119 121 116 92 154 121 49 61 110 257 212 180 157 159 215 165 152 195 196 142 170 203 175 145 161 164 163 179 171 143 152 155 152 163 173 175 183 184 170 172 178 177 180 181 184 186 189
353 351 347 343 343 343 343 347 349 0 18 36 129 125 113 90 44 1 345 145 198 234 257 221 181 268 286 261 290 315 319 296 261 201 173 166 155 158 149 99 84 66 119 138 144 190 125 123 199 205 217 197 173 172 146 121 119 139 179 234 184 184 264 145 129 159 165 159 180 162 129 164 164 161 167 163 166 189 188 173 173 180 184 186 186 190 188 194
352 349 346 342 341 343 342 344 348 357 12 33 151 137 105 112 26 318 291 262 236 224 237 236 184 245 268 263 288 334 353 321 317 111 172 168 147 142 227 41 73 55 133 138 123 92 110 162 218 220 215 187 178 200 144 84 70 108 151 192 197 184 256 331 122 160 169 141 147 146 148 177 166 163 168 157 170 196 197 184 177 180 187 189 191 194 190 197
351 347 344 342 340 342 341 342 348 356 5 23 139 150 184 256 277 241 315 310 279 231 223 252 259 263 264 263 263 234 78 8 326 351 162 158 140 147 135 61 105 137 79 97 96 60 87 207 229 218 193 125 129 215 109 99 100 101 121 135 161 205 169 6 76 155 163 116 132 149 161 179 167 166 171 172 183 198 205 198 180 174 187 193 193 195 190 193
348 345 342 340 340 342 339 341 352 358 355 1 121 138 349 340 301 236 236 331 292 287 200 221 230 248 270 272 230 174 117 159 184 330 168 156 145 166 131 87 114 121 79 107 127 129 161 236 230 193 148 114 84 27 108 103 94 109 119 128 193 214 157 25 322 158 148 105 129 139 157 180 170 172 173 180 189 196 217 229 215 174 190 201 197 193 190 190
346 344 341 337 340 342 338 342 7 356 347 341 351 13 357 354 351 198 197 43 304 302 225 204 200 205 255 286 162 150 121 164 165 276 170 152 121 146 142 124 115 103 148 152 141 158 212 233 169 122 126 135 116 86 126 133 274 252 180 169 177 191 175 144 162 150 92 67 123 130 144 209 184 185 179 175 192 207 217 230 238 228 213 212 203 195 193 189
343 341 337 336 339 343 342 348 40 352 345 338 347 357 357 353 2 139 98 45 344 302 269 222 224 223 255 149 161 175 105 152 202 203 172 153 137 137 154 144 117 141 183 138 131 177 249 237 141 108 109 128 128 148 176 166 229 301 227 200 180 170 164 131 142 143 91 116 156 142 149 235 196 190 186 170 184 203 206 215 226 228 226 222 207 198 194 190
341 335 335 335 336 346 353 24 355 347 344 337 344 350 352 345 355 116 76 46 25 310 312 351 322 311 314 99 173 169 73 313 243 176 161 165 152 117 110 154 63 167 170 134 137 196 254 219 133 130 140 133 136 204 233 167 128 313 244 198 170 155 145 142 150 149 133 182 192 168 146 206 223 205 194 171 177 194 197 212 222 221 221 221 211 200 190 188
339 332 334 332 334 347 358 309 334 342 337 313 332 339 341 337 16 118 59 43 20 301 298 291 336 24 349 313 109 105 108 279 267 103 151 169 161 61 105 183 81 172 173 121 167 237 187 136 102 121 136 142 154 228 232 157 127 246 238 164 153 152 150 156 155 148 148 125 148 177 112 105 252 226 190 173 180 193 197 209 217 218 220 220 216 207 190 186
339 331 331 331 334 342 342 322 326 324 271 303 314 327 333 330 151 110 71 71 319 287 255 290 305 343 329 338 45 92 189 258 126 280 336 125 131 45 96 196 175 178 183 121 189 260 188 160 175 155 148 174 194 210 196 163 169 236 201 145 157 159 155 159 149 136 143 104 142 211 131 106 277 262 172 169 189 204 204 206 209 211 215 216 214 208 194 187
340 331 327 328 329 334 331 316 311 300 302 307 311 321 325 330 118 64 71 95 309 295 233 330 325 309 337 15 17 30 356 2 112 262 356 93 85 55 126 198 153 154 219 121 186 255 251 201 188 156 158 203 213 206 175 168 208 238 149 111 85 115 129 138 128 106 114 102 203 205 173 137 276 245 164 167 204 216 208 203 206 208 210 211 211 204 194 186
340 329 323 322 322 326 320 307 306 315 314 312 315 321 331 67 83 53 50 63 348 273 257 336 319 309 45 59 342 352 31 308 328 358 29 81 15 31 113 169 106 118 321 38 203 247 282 253 169 146 177 199 204 196 175 182 204 215 91 80 54 56 71 78 51 58 87 282 243 191 178 147 266 237 179 179 210 212 200 196 201 205 206 205 204 199 191 183
337 326 318 316 313 309 304 311 324 318 313 320 324 332 11 60 63 79 65 359 235 301 318 305 293 22 83 119 242 336 72 285 333 54 72 75 38 28 44 70 69 66 10 353 306 294 326 338 186 213 203 180 160 174 200 207 210 191 91 102 82 42 29 42 3 29 113 251 265 183 165 137 237 249 204 210 240 189 186 194 195 197 201 200 197 194 188 178
335 323 312 309 303 289 282 305 316 313 317 332 343 12 81 47 27 73 303 317 332 312 300 267 282 108 125 130 152 248 158 279 337 97 123 116 105 137 150 167 172 55 352 275 286 335 319 242 231 259 223 163 138 156 306 324 187 162 137 114 102 71 31 68 342 343 174 245 276 164 146 142 249 245 211 227 241 214 190 195 194 193 195 195 193 190 182 170
334 320 312 311 304 299 303 312 311 313 327 341 8 50 80 73 35 337 285 318 325 279 251 273 303 112 120 96 4 252 158 348 303 94 102 95 86 47 277 208 162 127 215 216 241 351 316 288 283 259 259 180 146 155 209 95 159 171 163 145 130 120 113 129 123 348 247 252 284 146 149 211 268 282 330 258 243 228 200 193 192 191 191 191 188 182 174 166
336 323 318 315 315 320 328 327 317 321 339 6 61 60 61 68 327 310 306 269 256 302 343 347 6 49 61 96 246 242 105 23 353 82 44 45 57 22 333 335 62 120 124 151 188 149 125 292 254 187 234 183 161 178 173 149 162 185 171 147 147 150 148 160 176 193 208 234 50 134 162 215 217 266 317 292 260 237 199 185 181 184 187 184 178 174 168 168
340 329 327 324 329 340 343 339 335 346 356 34 69 60 64 63 268 291 290 264 275 330 338 9 58 50 13 322 323 351 132 73 33 64 42 53 92 95 312 323 340 98 124 142 243 181 124 254 253 244 213 153 179 200 149 123 146 211 153 121 160 186 154 136 181 188 159 119 100 166 201 228 197 252 332 347 334 255 173 163 163 172 175 171 176 179 173 173
348 342 339 335 342 348 347 347 358 4 15 60 68 57 82 222 247 191 234 266 328 333 338 9 42 51 352 318 343 352 35 85 59 51 31 43 92 23 287 255 290 103 138 158 218 201 65 274 277 311 303 192 196 190 158 159 181 156 132 163 210 180 131 120 179 322 90 137 188 217 252 308 298 276 347 12 15 12 120 152 161 167 166 169 180 183 179 176
359 355 350 350 356 356 356 14 27 16 34 77 77 78 219 240 199 199 254 306 336 39 68 47 23 39 347 334 335 330 354 44 50 56 47 19 6 342 312 270 258 191 177 172 204 188 135 278 289 326 293 260 206 157 146 184 151 126 168 195 193 110 98 110 137 32 55 162 241 264 223 295 323 208 339 9 16 4 25 133 149 159 165 172 182 185 182 167
353 356 12 358 353 358 29 48 35 28 58 72 59 89 208 330 215 218 286 348 4 50 69 86 27 82 123 57 319 314 359 47 24 50 88 47 10 318 332 286 261 271 198 158 100 43 116 290 295 275 208 298 332 116 31 332 130 145 182 167 129 130 166 123 139 150 123 164 271 315 268 263 193 212 336 5 3 348 7 92 122 148 165 173 181 180 168 144
356 10 24 355 355 43 89 67 35 42 67 61 37 55 259 301 286 278 297 20 84 66 63 85 111 64 94 112 262 320 31 95 100 71 100 76 62 183 25 296 281 333 15 132 116 325 78 102 286 276 240 300 1 91 188 279 21 71 95 104 101 140 163 164 158 159 143 152 211 290 316 258 209 238 312 353 333 347 65 87 93 113 132 145 157 152 137 130
21 39 335 2 27 91 119 38 32 47 65 70 125 246 302 285 292 318 329 46 71 73 67 28 46 55 34 27 24 347 39 71 98 84 84 62 62 305 323 331 299 325 358 68 89 121 33 79 269 292 319 27 46 178 192 187 166 93 79 119 216 82 120 149 81 89 128 144 167 166 250 257 249 249 203 169 149 117 110 100 94 94 88 80 88 101 113 124
48 45 282 353 25 113 70 19 35 58 68 40 301 267 308 336 344 332 334 32 65 100 120 124 101 71 64 36 19 345 50 45 42 75 80 44 82 326 318 350 261 296 5 38 42 61 77 73 256 300 346 24 237 247 211 186 181 161 149 177 179 132 117 126 135 293 102 122 157 164 196 261 277 220 193 165 131 123 112 104 97 89 87 83 83 97 113 125
64 61 291 345 343 225 53 33 338 76 88 349 345 260 294 7 35 335 335 17 47 61 67 78 76 45 79 99 14 33 83 50 12 60 98 112 132 174 312 324 273 215 86 46 304 254 159 100 24 278 280 255 259 274 267 217 189 139 134 162 149 130 122 131 180 221 94 93 133 115 125 265 269 184 192 180 128 116 113 108 98 87 85 85 90 101 110 112
81 222 304 6 13 171 73 33 313 8 3 263 296 260 281 18 27 345 2 22 25 42 38 27 34 36 36 83 52 59 80 67 29 54 128 255 177 232 306 322 306 111 78 36 307 291 138 80 31 301 298 304 302 315 318 245 109 77 32 32 91 126 130 139 171 168 128 151 141 84 113 253 236 186 175 147 122 112 112 109 105 106 102 96 100 107 111 112
122 232 295 7 21 101 80 51 291 334 309 300 6 352 334 33 44 12 16 10 360 67 68 12 15 54 24 60 80 70 78 101 80 17 58 126 282 296 341 350 358 67 63 329 267 320 350 58 61 32 358 349 346 348 344 346 32 51 312 316 348 100 105 113 121 79 105 193 155 132 215 249 187 166 145 128 120 113 113 108 107 116 116 107 105 107 112 115
28 211 275 345 13 54 97 159 164 235 308 353 23 357 351 15 26 20 56 28 7 71 106 359 358 37 22 43 62 36 33 91 104 12 35 39 306 316 357 1 13 44 359 268 243 58 79 71 89 109 124 150 114 339 319 318 331 333 316 326 340 108 121 129 122 85 122 194 147 143 193 191 165 159 136 128 127 118 113 101 91 98 106 108 109 111 117 118
42 88 309 331 5 44 65 156 101 115 210 66 37 4 21 13 313 323 82 78 29 30 57 14 351 22 26 36 51 23 10 37 75 62 44 345 299 297 337 351 12 10 357 13 30 60 102 68 62 108 114 124 199 247 264 283 326 333 328 330 333 333 122 108 106 139 169 157 165 219 171 147 168 168 141 136 134 123 119 108 97 99 101 105 111 113 116 118
65 106 20 335 344 19 12 6 39 49 192 114 92 349 3 357 319 343 22 58 34 32 59 30 16 32 349 24 67 32 354 11 34 42 22 309 281 287 317 341 9 358 354 11 18 52 99 40 9 83 91 78 23 294 306 325 43 353 336 331 329 320 107 104 116 191 156 131 218 235 163 146 168 167 146 143 138 127 129 122 112 114 112 110 110 107 107 113
59 141 145 139 182 19 12 343 360 14 27 74 99 30 4 14 28 17 345 351 16 32 73 36 13 14 302 348 99 54 347 10 19 359 327 323 331 336 341 347 360 360 6 16 8 64 107 41 333 65 79 48 19 2 357 358 355 22 18 5 350 343 80 113 123 187 134 140 214 189 154 152 162 156 145 142 139 135 138 133 121 118 115 111 107 97 96 103
51 84 297 39 135 192 221 307 329 23 33 43 63 49 36 34 34 359 302 6 11 6 68 76 359 359 14 47 95 83 8 52 29 325 294 346 356 14 13 347 332 356 21 30 10 68 111 22 323 3 60 18 5 2 1 1 356 13 29 26 11 1 36 96 93 76 86 104 151 143 139 142 145 145 138 129 130 134 134 130 125 121 118 114 110 102 94 92
64 110 298 18 33 278 268 340 18 69 33 29 57 39 50 56 32 351 356 53 35 338 41 93 13 360 41 51 77 91 178 165 162 276 234 84 14 31 70 275 280 343 12 27 356 6 83 21 319 17 63 352 354 3 357 353 1 28 20 15 12 8 15 56 86 89 75 79 110 127 130 129 127 128 120 117 126 132 131 130 125 121 120 117 111 100 90 84
44 173 123 88 28 335 339 4 61 91 33 13 103 105 33 48 25 46 29 38 121 340 92 144 164 2 36 44 54 40 256 197 194 249 234 165 138 186 88 201 199 358 7 19 355 357 56 63 342 43 87 269 337 12 356 344 354 28 17 6 359 356 355 1 23 112 122 122 126 133 141 153 148 130 119 124 134 131 130 129 118 111 114 113 108 99 91 89
11 16 61 98 73 345 11 359 36 85 89 287 166 145 46 259 256 94 74 2 7 53 166 164 145 69 33 29 18 310 271 224 214 252 241 164 106 70 66 70 106 91 47 49 35 7 65 92 24 64 124 228 312 10 360 356 16 14 355 349 329 308 311 350 355 17 102 131 142 161 175 152 142 134 129 134 137 133 134 132 121 119 114 104 101 100 97 96